STARLINK-11557, 62837

Orbit data source: Space-Track

STARLINK-11557, 62837 is a payload satellite owned by SpaceX/Seattle (US) in LEO that was launched on Mon, 27 Jan 2025 UTC via an FALCON 9 launch vehicle from the Air Force Eastern Test Range (AFETR). Payload-class satellites include a variety of spacecraft equipped with specific instruments for various scientific and technological missions. These include communications satellites like Starlink; space stations such as the ISS; scientific satellites like the Hubble; Earth observation satellites from companies like Planet Labs, Umbra, and HawkEye 360; GPS; miniature CubeSats for education and research; and military/defense satellites.

Loading next visibility...
Identifier
62837, 2025-019J
Orbit
LEO
Country
Flag of USUS
Related business
Manufacturer
SpaceX/Seattle
Mission
Operational Commercial Communications
Bus & Motor
STARLINK V2MD, Unknown motor
Mass
960 kg wet, ~910 kg dry
Launch date (UTC)
2025-01-27 (10 months ago)
Launch vehicle
FALCON 9
Launch site
Air Force Eastern Test Range (AFETR)
Object type
Payload
Rocket body
Debris
Shape & HBR
Box + 2 Pan, 18.1 m
Radar Cross Section
36.964 m², Large (>1 m²)

Expand to show TLE details & history
Last TLE update: 13 hours ago

TLE from 13 hours ago
0 STARLINK-11557
1 62837U 25019J   25342.45620553  .00373755  00000-0  27787-2 0  9992
2 62837  42.9998 135.7679 0002008 259.8542 100.2099 15.70913540 49539
Epoch: 2025-12-08T10:56Z
TLE epoch observation values (Epoch: 2025-12-08T10:56:56.157Z)
Latitude
-0.00005°
Longitude
-105.92112°
Altitude
356.296 km
Speed
7.697 km/s
True Right ascension
09h 03m 04s
True Declination
0° 00' 00"
Sunlit
Object was in full shadow at epoch
Visualization orbit readout
Latitude
Unknown
Longitude
Unknown
Altitude
Unknown
Speed
Unknown
Apparent Right ascension
Unknown
Apparent Declination
Unknown
Sunlit
N/A
Visualization observer readout
Local Sidereal Time
22:18:29
Azimuth
Unknown
Elevation
Unknown
Doppler factor
Unknown
Orbital elements
Apogee altitude
359.619 km
Perigee altitude
356.914 km
Semi-major axis
6,736.404 km
Eccentricity
0.0002
Inclination
42.9998°
RAAN
135.7679°
Arg. of periapsis
259.8542°
True anomaly
100.23254°
Mean anomaly
100.2099°
Eccentric anomaly
100.22122°
Mean motion
3.92555 °/min
Orbital period
91.71 mins
BSTAR
0.0027787
Loading maneuver chart data...
Computing Atmospheric mass density...
Loading historical data...
Loading historical data...
Loading historical data...
Loading historical data...
Loading historical data...
Loading historical data...
Loading historical data...

Documentation

Showing up to 5 results
|